Location: ???? ???? ?????
(31.2680°N, 31.7283°E)
Time: 19:28:53
(UTC+00:00)

MetOp-A - Pass Details

Date: 13 July 2020
Orbit: 819 x 821 km, 98.5° (Epoch: 06 August)

Event Time Altitude Azimuth Distance (km) Brightness Sun altitude
Exits shadow 18:02:29 - 164° (SSE) 2,500 6.2 -12.5°
Reaches altitude 10° 18:02:43 10° 164° (SSE) 2,408 6.1 -12.5°
Maximum altitude 18:08:04 85° 77° (ENE) 828 4.1 -13.4°
Drops below altitude 10° 18:13:26 10° 349° (NNW) 2,420 7.3 -14.4°
Sets 18:15:47 0° 349° (NNW) 3,356 8.1 -14.8°
